COSMOS 1778 (GLONASS)

Satellite information

Favourite Embed

Satellite Type and Status

PAYLOADIN ORBIT

Key statistics

Satellite COSMOS 1778 (GLONASS) at a glance.

Uptime

14285

Days in orbit

Revolutions

≈ 2.1

Per day

Orbit

MEO

Medium Earth Orbit

Inclination

64.8

Latest

Satellite identification and parameters

Extended collection of information and parameters for COSMOS 1778 (GLONASS).

Object identification

Identified? True

Debris? False

Object name: COSMOS 1778 (GLONASS)

International designator: 1986-071A

Object number (NORAD): 16961

Object ID (CCSDS): 16961

Country: COMMONWEALTH OF INDEPENDENT STATES (CIS)

Current information (Y/N): Y

RCS size: MEDIUM

Orbital parameters

Period: 675.731 minutes

Inclination: 64.7596 deg

SMA: 25507.99 km

Apoapsis: 19141.347 km

Periapsis: 19118.363 km

RAAN: 80.3882 deg

Eccentricy: 0.00045052

Argument of periapsis: 210.2735 deg

Mean anomaly: 223.8765 deg

Mean motion: 2.13102434 rev/day

Mean motion (dot): 0.0000002 rev/day2

B* drag term: 0.0 1/REarth

Two-line elements (TLE)

Creation date: Oct. 26, 2025, 2:54 a.m.

Reference frame: TEME

Reference center: EARTH

Epoch: Oct. 25, 2025, 8:52 a.m. UTC

TLE line 0: 0 COSMOS 1778 (GLONASS)

TLE line 1: 1 16961U 86071A 25298.36948755 .00000020 00000-0 00000-0 0 9990

TLE line 2: 2 16961 64.7596 80.3882 0004505 210.2735 223.8765 2.13102434304375

Live tracking on map

Real-time ground track for satellite COSMOS 1778 (GLONASS).

In-orbit conjunctions

A list of the most updated potential collisions computed for object COSMOS 1778 (GLONASS).

Target Orbit TCA Probability of collision Miss distance Type
SL-12 R/B(2) MEO 2025-10-06 02:45:42 TBA 4935.0 (m) ROCKET BODY

Associated space launch

GLONASS navigation satellites

COSMOS 1778 (GLONASS) was lifted into orbit during the mission ‘Proton | Uragan 14 to 16’, on board a Proton space rocket.

The launch took place on Sept. 16, 1986, 11:38 a.m. from 200/40.

For more information about the launch, click the button.

Launch to space Proton | Uragan 14 to 16
Proton | Uragan 14 to 16

Agency: N/A

Status: Launch Successful

Launch date: Sept. 16, 1986, 11:38 a.m. UTC

Rocket: Proton

Launch pad: 200/40

Location: Baikonur Cosmodrome, Republic of Kazakhstan

...

Latest news about this satellite

There are no fresh news available about this satellite. Check back as we update our databases every day.


Newsletter sign-up

Weekly statistics, charts and insights to help you stay on top of the space industry.